Weather past 2 weeks in Willemstad, Curaçao

Now
88 °F

Passing clouds.


Feels Like: 98 °F
Forecast: N/A
Wind: 10 mph from East

Location: Hato Airport - Curacao

Current Time: Aug 21, 2014 at 6:20:03 PM

Latest Report: Aug 21, 2014 at 5:00 PM


Visibility: N/A

Pressure: 29.86 "Hg

Humidity: 66%

Dew point: 75 °F

Location of WillemstadLocation

Historic Weather in Willemstad — Graph

°F

Willemstad temperature yesterday

Maximum temperature yesterday: 90 °F (at 2:00 PM)
Minimum temperature yesterday: 79 °F (at 6:00 AM)
Average temperature yesterday: 84 °F

Past Weeks' High & Low Weather Summary

 TemperatureHumidityPressure
High91 °F (Aug 15, 12:00 PM)94% (Aug 16, 7:00 AM)30.01 "Hg (Aug 16, 7:00 AM)
Low77 °F (Aug 16, 7:00 AM)55% (Aug 9, 1:00 PM)29.83 "Hg (Aug 6, 5:00 PM)
Average84 °F76%29.93 "Hg
* Reported Aug 6 5:00 PM — Aug 21 5:00 PM, Willemstad, Weather by CustomWeather, © 2014

Note: Actual official high and low records may vary slightly from our data, if they occured in-between our weather recording intervals... More about our weather records

Advertising

Willemstad weather history for previous 24 hours

 ConditionsComfort  
Time TempWeatherWind HumidityBarometerVisibility
5:00 PM
Aug 21
88 °FPassing clouds.10 mph66%29.86 "HgN/A
4:00 PM88 °FPassing clouds.10 mph66%29.86 "HgN/A
3:00 PM90 °FPassing clouds.9 mph67%29.86 "HgN/A
2:00 PM90 °FPassing clouds.8 mph63%29.89 "HgN/A
1:00 PM90 °FPassing clouds.9 mph63%29.92 "HgN/A
12:00 PM88 °FScattered clouds.9 mph66%29.95 "HgN/A
11:00 AM88 °FScattered clouds.10 mph70%29.95 "HgN/A
10:00 AM88 °FScattered clouds.10 mph66%29.95 "HgN/A
9:00 AM86 °FScattered clouds.12 mph70%29.95 "HgN/A
8:00 AM86 °FScattered clouds.12 mph70%29.95 "HgN/A
7:00 AM82 °FScattered clouds.12 mph79%29.92 "HgN/A
6:00 AM82 °FPassing clouds.10 mph79%29.92 "HgN/A
5:00 AM81 °FPassing clouds.9 mph89%29.89 "HgN/A
4:00 AM81 °FPassing clouds.9 mph84%29.92 "HgN/A
3:00 AM81 °FPassing clouds.10 mph84%29.92 "HgN/A
2:00 AM82 °FPassing clouds.10 mph79%29.92 "HgN/A
1:00 AM82 °FPassing clouds.10 mph84%29.95 "HgN/A
12:00 AM82 °FPassing clouds.12 mph84%29.95 "HgN/A
11:00 PM
Aug 20
82 °FPassing clouds.12 mph84%29.98 "HgN/A
10:00 PM82 °FPassing clouds.13 mph84%29.98 "HgN/A
8:00 PM82 °FPassing clouds.14 mph84%29.92 "HgN/A
7:00 PM82 °FPassing clouds.14 mph84%29.92 "HgN/A
6:00 PM84 °FScattered clouds.12 mph79%29.89 "HgN/A
Weather by CustomWeather, © 2014

See weather overviewHow to use our weather pages